Regional Weather Roundup
Issued by NWS

Home | Current Version | Previous Version | Graphics & Text | Print | Product List | Glossary On
Versions: 1 2 3 4 5 6 7 8 9 10 11 12 13 14 15 16 17 18 19 20 21 22 23 24 25 26 27 28 29 30 31 32 33 34 35 36 37 38 39 40 41 42 43 44 45 46 47 48 49 50
000
ASUS43 KMPX 261910
RWRMN
WEATHER ROUNDUP FOR MINNESOTA
NATIONAL WEATHER SERVICE TWIN CITIES/CHANHASSEN MN
200 PM CDT SUN APR 26 2015


NOTE: "FAIR" INDICATES FEW OR NO CLOUDS BELOW 12,000 FEET WITH NO
SIGNIFICANT WEATHER AND/OR OBSTRUCTIONS TO VISIBILITY. N/A MEANS
CURRENT SKY AND/OR WEATHER CONDITIONS ARE NOT AVAILABLE.

MNZ060>063-068>070-262000-
   Twin Cities Metro

CITY           SKY/WX    TMP DP  RH WIND       PRES   REMARKS
TWIN CITIES    SUNNY     58  22  24 CALM      30.11F
ST PAUL        SUNNY     58  20  22 MISG      30.12F
CRYSTAL        SUNNY     59  20  22 NE6       30.10F
BLAINE         SUNNY     59  19  21 E5        30.11F
LAKEVILLE      SUNNY     55  27  33 E8        30.10F
EDEN PRAIRIE   SUNNY     59  25  27 E8        30.09F
SOUTH ST PAUL  SUNNY     58  24  27 CALM      30.11S
LAKE ELMO      FAIR      59  27  29 N3        30.12S
$$
MNZ001>005-007-008-013>017-022>024-027-028-262000-
   Northwest Minnesota

CITY           SKY/WX    TMP DP  RH WIND       PRES   REMARKS
BEMIDJI        SUNNY     59  23  25 SE8       30.15S
HALLOCK        SUNNY     66  18  15 S10       30.12F
ROSEAU         MOSUNNY   63  28  27 NE3       30.14F
WARROAD        SUNNY     50  30  46 E13       30.17S
THIEF RVR FALL SUNNY     61  27  27 E8        30.14F
CROOKSTON      SUNNY     64  27  24 S9        30.13F
FOSSTON        SUNNY     64  28  25 E8        30.14S
DETROIT LAKES  SUNNY     61  27  27 SE3       30.14S
MOORHEAD       SUNNY     64  23  20 SE5       30.13S
PARK RAPIDS    SUNNY     59  17  19 CALM      30.13F
MAHNOMEN       FAIR      61  24  24 E7        30.13S
$$
MNZ006-009>011-018-025>026-262000-
   North Central Minnesota

CITY           SKY/WX    TMP DP  RH WIND       PRES   REMARKS
BAUDETTE       SUNNY     59  22  24 CALM      30.16S
FLAG ISLAND    SUNNY     46  28  49 S7        30.17S
INTL FALLS     SUNNY     56  13  18 N7        30.18S
WASKISH        SUNNY     57  30  35 CALM      30.16S
BIG FORK       SUNNY     61  16  17 N5        30.15F
LONGVILLE      SUNNY     59  14  17 NE5       30.14F
GRAND RAPIDS   SUNNY     55  16  21 NE3       30.15F
CRANE LAKE     SUNNY     54  14  20 NW3       30.18F
ORR            SUNNY     59   7  12 N6        30.13F
COOK           SUNNY     55  18  22 E3        30.16S
WALKER         FAIR      55  18  23 SE6       30.15S
$$
MNZ012-019>021-037-262000-
   Northeast Minnesota

CITY           SKY/WX    TMP DP  RH WIND       PRES   REMARKS
DULUTH         SUNNY     52  21  29 E9        30.16S
ELY            SUNNY     55  14  19 NE9       30.15F
HIBBING        SUNNY     57  10  15 CALM      30.14F
EVELETH        SUNNY     57  10  15 N7        30.15S
DULUTH HARBOR  SUNNY     39  34  81 NE6       30.21R
TWO HARBORS    SUNNY     54  28  37 SE6       30.15F
SILVER BAY     SUNNY     48  27  43 E8        30.16S
GRAND MARAIS     N/A     40  33  76 SW7       30.20S
G MARAIS ARPRT SUNNY     46  25  42 S6        30.16S
$$
MNZ029>031-032-039>041-046>048-054>057-064-262000-
   West Central Minnesota

CITY           SKY/WX    TMP DP  RH WIND       PRES   REMARKS
FERGUS FALLS   SUNNY     61  18  18 E3        30.13S
WHEATON        SUNNY     61  28  29 SE7       30.13S
MORRIS         SUNNY     63  25  23 E12       30.11S
ALEXANDRIA     SUNNY     58  20  22 E9        30.14S
ELBOW LAKE     FAIR      58  25  28 E8        30.13S
WADENA         SUNNY     57  23  26 NE5       30.13S
GLENWOOD       SUNNY     59  19  21 NE10      30.13S
APPLETON       SUNNY     63  23  22 NE12      30.10F
BENSON         SUNNY     63  14  15 E6        30.11F
ORTONVILLE     SUNNY     61  27  27 E5        30.11S
MADISON        SUNNY     63  27  25 NE7       30.10F
WILLMAR        FAIR      59  28  31 E10       30.12S
$$
MNZ033>034-036-042>043-049>051-058-059-262000-
   Central Minnesota

CITY           SKY/WX    TMP DP  RH WIND       PRES   REMARKS
ST CLOUD       SUNNY     58  20  22 NE9       30.12F
SAUK CENTRE    FAIR      57  20  23 E8        30.13S
PAYNESVILLE    SUNNY     54  21  27 N5        30.12S
AITKIN         SUNNY     61   0   8 E5        30.13S
PINE RIVER     SUNNY     57  25  28 E8        30.16F
BRAINERD       SUNNY     57  15  19 VRB3      30.14F
STAPLES        SUNNY     57  12  17 CALM      30.14S
LONG PRAIRIE   FAIR      55  19  24 NE12G17   30.14R
LITTLE FALLS   SUNNY     57  14  18 E7        30.13S
LITCHFIELD     SUNNY     59  23  25 NE5       30.11S
BUFFALO        SUNNY     58  13  17 E6        30.12F
MAPLE LAKE     SUNNY     60  25  26 E5        30.12F
$$
MNZ037-044-045-052-053-262000-
   East Central Minnesota

CITY           SKY/WX    TMP DP  RH WIND       PRES   REMARKS
PRINCETON      SUNNY     59  21  23 E7        30.12F
MORA           SUNNY     55  19  24 NE6       30.14F
CAMBRIDGE      SUNNY     61  36  39 N3        30.11S
RUSH CITY      SUNNY     57  22  25 N3        30.12F
MOOSE LAKE     SUNNY     55  21  26 NE13      30.12F
HINCKLEY       FAIR      59  23  25 SE3       30.12F
CLOQUET        SUNNY     54  12  19 E9        30.15S
MCGREGOR       SUNNY     59  19  21 NE6       30.14F
$$
MNZ071>073-080-081-089-090-097-098-262000-
   Southwest Minnesota

CITY           SKY/WX    TMP DP  RH WIND       PRES   REMARKS
MONTEVIDEO     SUNNY     64  25  22 SE7       30.11S
GRANITE FALLS  SUNNY     63  24  22 E6        30.10F
CANBY          SUNNY     60  30  31 NE7       30.11F
MARSHALL       SUNNY     61  28  29 E6        30.09S
REDWOOD FALLS  SUNNY     62  21  20 NE3       30.08F
OLIVIA         SUNNY     57  19  23 E8        30.09S
PIPESTONE      SUNNY     61  28  29 N6        30.07S
WINDOM         SUNNY     61  27  27 VRB5      30.07F
WORTHINGTON    SUNNY     61  28  29 E12       30.06F
JACKSON        SUNNY     63  27  25 NE10      30.07S
TRACY          SUNNY     62  30  29 NE8       30.08F
SLAYTON        SUNNY     60  28  28 CALM      30.08F
$$
MNZ065>067-074>077-082>085-091>093-262000-
   South Central Minnesota

CITY           SKY/WX    TMP DP  RH WIND       PRES   REMARKS
MANKATO        SUNNY     59  25  27 SE5       30.09S
NEW ULM        SUNNY     61  25  25 E9        30.08F
ST JAMES       SUNNY     61  25  25 CALM      30.09S
FAIRMONT       SUNNY     63  30  29 NE8G17    30.07S
GLENCOE        SUNNY     60  27  28 NE3       30.09F
FARIBAULT      SUNNY     59  25  27 E3        30.10S
OWATONNA       SUNNY     57  25  28 CALM      30.09F
WASECA         SUNNY     57  28  33 NE7       30.10F
ALBERT LEA     SUNNY     57  27  30 NE5       30.08F
$$
MNZ078>079-086>088-094>096-262000-
   Southeast Minnesota

CITY           SKY/WX    TMP DP  RH WIND       PRES   REMARKS
ROCHESTER      SUNNY     55  28  35 CALM      30.11S
RED WING       SUNNY     59  19  21 E3        30.09F
STANTON        SUNNY     59  25  27 NE6       30.09F
DODGE CENTER   SUNNY     55  28  35 N7        30.10S
WINONA         SUNNY     57  27  30 CALM      30.09F
AUSTIN         SUNNY     55  30  38 N7        30.09S
PRESTON        SUNNY     55  25  31 N8        30.09S
$$
ABBREVIATIONS USED IN REMARKS
   TC - TEMPERATURES IN CELSIUS
  WCI - WIND CHILL INDEX
   HX - HEAT INDEX
  VSB - VISIBILITY
$$



USA.gov is the U.S. government's official web portal to all federal, state and local government web resources and services.